Time,TemperatureF,DewpointF,PressureIn,WindDirection,WindDirectionDegrees,WindSpeedMPH,WindSpeedGustMPH,Humidity,HourlyPrecipIn,Conditions,Clouds,dailyrainin,SoftwareType,DateUTC
2013-12-02 00:00:00,25.9,24.4,30.08,NE,40,3.0,3.0,94,0.00,,---,0.00,VWS V14.00,2013-12-02 05:00:00,
2013-12-02 00:30:00,26.1,24.6,30.07,ENE,65,0.0,4.0,94,0.00,,---,0.00,VWS V14.00,2013-12-02 05:30:00,
2013-12-02 01:00:00,26.2,25.0,30.06,ENE,71,7.0,7.0,95,0.00,,---,0.00,VWS V14.00,2013-12-02 06:00:00,
2013-12-02 01:30:00,26.2,25.0,30.05,ENE,66,3.0,5.0,95,0.00,,---,0.00,VWS V14.00,2013-12-02 06:30:00,
2013-12-02 02:00:00,26.3,25.1,30.05,NE,36,4.0,7.0,95,0.00,,---,0.00,VWS V14.00,2013-12-02 07:00:00,
2013-12-02 02:30:00,26.6,25.1,30.05,ENE,75,3.0,5.0,94,0.00,,---,0.00,VWS V14.00,2013-12-02 07:30:00,
2013-12-02 03:00:00,26.6,25.1,30.04,ENE,58,0.0,8.0,94,0.00,,---,0.00,VWS V14.00,2013-12-02 08:00:00,
2013-12-02 03:30:00,26.5,25.0,30.03,ENE,74,5.0,7.0,94,0.00,,---,0.00,VWS V14.00,2013-12-02 08:30:00,
2013-12-02 04:00:00,26.7,25.2,30.03,ENE,60,4.0,5.0,94,0.00,,---,0.00,VWS V14.00,2013-12-02 09:00:00,
2013-12-02 04:30:00,27.0,25.2,30.02,NE,49,2.0,3.0,93,0.00,,---,0.00,VWS V14.00,2013-12-02 09:30:00,
2013-12-02 05:00:00,27.1,25.4,30.02,ENE,73,2.0,4.0,93,0.00,,---,0.00,VWS V14.00,2013-12-02 10:00:00,
2013-12-02 05:30:00,27.0,25.2,30.00,ENE,76,2.0,3.0,93,0.00,,---,0.00,VWS V14.00,2013-12-02 10:30:00,
2013-12-02 06:00:00,26.9,25.4,30.01,ENE,66,1.0,4.0,94,0.00,,---,0.00,VWS V14.00,2013-12-02 11:00:00,
2013-12-02 06:30:00,26.7,25.2,30.00,ENE,59,3.0,5.0,94,0.00,,---,0.00,VWS V14.00,2013-12-02 11:30:00,
2013-12-02 07:00:00,26.4,24.9,30.00,NE,52,4.0,7.0,94,0.00,,---,0.00,VWS V14.00,2013-12-02 12:00:00,
2013-12-02 07:30:00,26.3,24.8,30.00,ENE,74,7.0,7.0,94,0.00,,---,0.00,VWS V14.00,2013-12-02 12:30:00,
2013-12-02 08:00:00,26.2,24.7,30.00,ESE,119,1.0,7.0,94,0.00,,---,0.00,VWS V14.00,2013-12-02 13:00:00,
2013-12-02 08:30:00,26.3,24.8,30.00,ENE,69,1.0,5.0,94,0.00,,---,0.00,VWS V14.00,2013-12-02 13:30:00,
2013-12-02 09:00:00,26.5,25.0,29.99,ENE,67,4.0,9.0,94,0.00,,---,0.00,VWS V14.00,2013-12-02 14:00:00,
2013-12-02 09:30:00,26.8,25.3,29.99,ENE,57,5.0,7.0,94,0.00,,---,0.00,VWS V14.00,2013-12-02 14:30:00,
2013-12-02 10:00:00,27.2,25.7,29.98,ENE,70,1.0,3.0,94,0.00,,---,0.00,VWS V14.00,2013-12-02 15:00:00,
2013-12-02 10:30:00,28.0,26.2,29.98,East,80,3.0,5.0,93,0.00,,---,0.00,VWS V14.00,2013-12-02 15:30:00,
2013-12-02 11:00:00,28.5,26.7,29.96,ENE,76,3.0,5.0,93,0.00,,---,0.00,VWS V14.00,2013-12-02 16:00:00,
2013-12-02 11:30:00,28.1,26.3,29.95,ENE,66,3.0,4.0,93,0.00,,---,0.00,VWS V14.00,2013-12-02 16:30:00,
2013-12-02 12:00:00,28.4,26.9,29.96,ESE,113,3.0,5.0,94,0.00,,---,0.00,VWS V14.00,2013-12-02 17:00:00,
2013-12-02 12:30:00,28.5,27.0,29.95,East,81,7.0,8.0,94,0.00,,---,0.00,VWS V14.00,2013-12-02 17:30:00,
2013-12-02 13:00:00,28.3,26.8,29.94,NE,47,3.0,5.0,94,0.00,,---,0.00,VWS V14.00,2013-12-02 18:00:00,
2013-12-02 13:30:00,28.5,27.0,29.94,ESE,102,3.0,5.0,94,0.00,,---,0.00,VWS V14.00,2013-12-02 18:30:00,
2013-12-02 14:00:00,29.4,27.6,29.92,East,79,3.0,5.0,93,0.00,,---,0.00,VWS V14.00,2013-12-02 19:00:00,
2013-12-02 14:30:00,29.1,27.3,29.92,East,94,3.0,5.0,93,0.00,,---,0.00,VWS V14.00,2013-12-02 19:30:00,
2013-12-02 15:00:00,29.1,27.3,29.92,ESE,105,0.0,3.0,93,0.00,,---,0.00,VWS V14.00,2013-12-02 20:00:00,
2013-12-02 15:30:00,28.9,27.1,29.92,East,80,5.0,5.0,93,0.00,,---,0.00,VWS V14.00,2013-12-02 20:30:00,
2013-12-02 16:00:00,28.6,27.1,29.92,ENE,59,3.0,4.0,94,0.00,,---,0.00,VWS V14.00,2013-12-02 21:00:00,
2013-12-02 16:30:00,28.7,27.2,29.92,East,94,1.0,2.0,94,0.00,,---,0.00,VWS V14.00,2013-12-02 21:30:00,
2013-12-02 17:00:00,28.9,27.1,29.92,ENE,66,2.0,3.0,93,0.00,,---,0.00,VWS V14.00,2013-12-02 22:00:00,
2013-12-02 17:30:00,28.7,27.2,29.91,East,85,0.0,1.0,94,0.00,,---,0.00,VWS V14.00,2013-12-02 22:30:00,
2013-12-02 18:00:00,28.6,26.8,29.91,East,81,1.0,3.0,93,0.00,,---,0.00,VWS V14.00,2013-12-02 23:00:00,
2013-12-02 18:30:00,28.7,26.9,29.92,ENE,77,1.0,3.0,93,0.00,,---,0.00,VWS V14.00,2013-12-02 23:30:00,
2013-12-02 19:30:00,29.2,27.4,29.93,ENE,75,1.0,2.0,93,0.00,,---,0.00,VWS V14.00,2013-12-03 00:30:00,
2013-12-02 20:00:00,29.1,27.3,29.92,East,82,1.0,3.0,93,0.00,,---,0.00,VWS V14.00,2013-12-03 01:00:00,
2013-12-02 20:30:00,28.8,27.3,29.92,ENE,58,0.0,2.0,94,0.02,,---,0.02,VWS V14.00,2013-12-03 01:30:00,
2013-12-02 21:00:00,28.9,27.4,29.92,ENE,59,1.0,2.0,94,0.02,,---,0.02,VWS V14.00,2013-12-03 02:00:00,
2013-12-02 21:30:00,29.2,27.4,29.92,ENE,58,0.0,1.0,93,0.02,,---,0.02,VWS V14.00,2013-12-03 02:30:00,
2013-12-02 22:00:00,29.7,27.7,29.91,ENE,58,0.0,0.0,92,0.01,,---,0.02,VWS V14.00,2013-12-03 03:00:00,
2013-12-02 22:30:00,30.3,28.0,29.91,ENE,58,0.0,0.0,91,0.01,,---,0.02,VWS V14.00,2013-12-03 03:30:00,
2013-12-02 23:00:00,30.6,28.0,29.91,ENE,58,1.0,2.0,90,0.01,,---,0.02,VWS V14.00,2013-12-03 04:00:00,
2013-12-02 23:30:00,29.8,27.5,29.91,ENE,58,0.0,0.0,91,0.00,,---,0.02,VWS V14.00,2013-12-03 04:30:00,